Temp_Advection
nan nan nan nan nan nan nan nan nan nan nan nan nan nan nan nan nan nan nan nan nan nan nan nan nan nan nan nan nan nan nan nan nan nan nan nan nan nan nan nan nan nan nan nan nan
nan -0 -0 -0 -0 -0 -0 -0 -0 -0 -0 -0 -0 -0 -0 -1 -1 0 -1 -0 0 0 0 -1 -1 -1 -1 -1 -1 -1 -0 -2 -2 -0 -0 0 0 0 0 0 0 -0 0 1 nan
nan -0 -0 -0 -0 -0 -0 -0 -0 -0 -0 -0 -0 -0 0 0 -1 -0 0 -0 0 0 -0 -1 -1 -1 -1 -1 -1 0 -1 -2 -0 0 0 -0 0 0 -0 0 -0 0 0 0 nan
nan -1 -0 -0 -0 -0 -0 -0 -0 -0 -0 -0 -0 -0 -0 -1 -0 0 -0 -0 0 0 -0 -1 -1 -1 -1 -1 -0 -0 -1 -1 -0 0 0 1 -0 -0 -0 0 0 0 0 0 nan
nan -1 -0 -0 -0 -0 -0 -0 -0 -0 -0 -0 -0 0 -0 -1 -1 -0 0 0 0 0 -1 -1 -1 -1 -1 -0 -0 -0 -0 0 -0 0 0 -0 -0 -0 0 -0 -0 0 0 0 nan
nan -1 -0 -0 -0 -0 -0 -0 -0 -0 -0 -0 -0 0 -0 -2 -0 0 0 0 -0 -0 -1 -1 -0 -0 -1 -1 -0 -0 -0 0 -0 -0 0 -0 -0 -0 -0 -0 -0 0 0 0 nan
nan -1 -1 -0 -0 -0 -0 -0 -0 -0 -0 -0 0 0 -1 -2 -0 0 0 -0 -0 -0 -0 -0 -0 -0 -0 -0 -0 -0 -1 -1 -0 -0 -0 0 -0 -1 -0 -0 -0 0 0 0 nan
nan -1 -1 -1 -0 -0 -0 -0 -0 -0 0 0 0 0 -1 -0 0 -0 -0 -0 -0 -0 -0 -0 0 -0 -1 -0 0 -0 -0 -1 -2 -0 0 1 -1 -1 0 0 0 0 -0 -0 nan
nan -1 -1 -1 -0 -0 -0 -0 -0 -0 -0 -0 -0 -1 -1 0 -0 -0 -0 -0 -0 0 -0 -0 -0 -1 -1 -0 -0 -0 -0 -1 -1 0 0 0 -1 -0 -0 -0 0 0 -0 -0 nan
nan -1 -1 -0 -0 -0 -0 -0 -0 0 0 -0 -0 -1 -1 -0 0 -0 -0 -0 -0 -0 -0 -1 -1 -1 -0 0 -0 -1 -1 -0 -0 -0 0 0 -0 -1 -0 -0 -0 -0 -0 -0 nan
nan -0 -0 -0 -0 -0 -0 0 -0 0 -1 -1 0 0 -0 -0 0 -1 -0 -0 -0 -1 -1 -1 -0 -0 -1 -0 -0 -0 -0 -1 -1 0 1 -0 -1 -1 -1 -1 -0 -0 -0 0 nan
nan -0 -0 -0 -0 -0 -0 0 -0 -0 -1 -0 0 -0 0 -0 -0 -0 0 -0 -1 -1 -1 0 -1 -1 -0 1 1 0 -0 -1 -1 -0 0 -0 -1 -1 -0 -0 -1 -0 -0 0 nan
nan -0 -0 -0 -0 -0 -0 -0 -0 -0 -1 -0 -0 -0 0 -0 -0 0 0 -1 -1 -0 -0 -0 -0 0 1 1 0 0 -0 -1 -1 -1 -0 -0 -1 -1 -1 -0 0 0 0 0 nan
nan -0 0 0 -0 0 -0 -0 -0 0 -1 -0 -0 -0 -0 0 -0 0 -0 -0 -0 -0 -0 -0 0 1 0 -0 0 -0 -1 1 0 -0 -1 -0 -0 -2 -1 -0 0 0 0 0 nan
nan -0 0 -0 -0 -0 0 0 0 0 -1 0 -0 0 -0 -0 0 -0 0 -0 -0 -0 0 -0 0 0 -0 -0 0 -0 -0 0 -0 -0 -0 -1 -1 -2 -0 0 -0 -0 -0 -1 nan
nan 0 -0 -0 0 -0 -0 -0 -0 -1 -0 0 -0 -0 -0 -0 0 0 -0 -0 -0 -0 -0 -0 -0 0 -0 -0 -0 0 0 0 -0 0 -0 -1 -1 -1 0 -1 -0 -0 -0 -1 nan
nan 0 -0 -0 -0 0 -0 -0 -1 -0 0 -0 -0 -0 -0 -0 -0 -0 -0 -0 0 -0 -0 -0 -0 -0 0 0 -0 1 0 0 0 0 -1 -0 0 -0 -0 -0 -0 -0 -0 -0 nan
nan 0 -0 -0 -0 -0 0 -1 -0 0 -0 -0 -0 -0 -0 -0 -0 -0 -0 -1 -0 0 0 -0 -0 -0 0 0 0 0 0 -0 -0 -0 -0 0 -0 0 -0 -1 -0 -0 -0 -0 nan
nan -0 0 -0 -0 -0 -1 -1 -0 -0 -0 -0 -1 -0 -0 0 -0 -1 -1 -0 -1 -1 -0 -1 -0 -0 0 0 0 0 -0 -0 0 -0 -0 -1 -1 0 -0 -0 0 -0 -0 -1 nan
nan -0 -0 -0 0 0 -0 -0 -0 -0 -0 -0 -0 -0 -0 -0 -0 -1 -0 -0 -0 -0 -0 -1 -1 -0 0 0 0 0 0 1 0 -0 -1 -1 0 0 -0 0 -0 -1 -1 -1 nan
nan -0 0 0 0 -1 -0 -0 0 -0 -0 -0 -0 -0 -0 -0 -0 -0 -0 -0 -0 -0 -0 -1 -1 -1 0 0 -0 1 0 -0 -0 -0 -0 -0 0 -0 0 0 -0 -1 -1 -1 nan
nan 0 0 0 -0 -0 0 -0 -0 -0 -0 -0 -0 -0 -0 -0 -0 -0 -1 0 -0 -0 -0 -0 -1 -2 -1 -0 0 0 -0 0 0 -0 0 -0 -0 0 0 0 -0 -0 -1 -1 nan
nan -0 0 0 0 0 0 0 -0 -0 -0 -0 -0 -0 -0 0 -0 -0 -0 -0 -0 -0 -0 -0 -0 -1 -1 0 0 0 -0 0 0 0 0 -0 0 -0 -0 0 -0 -0 -0 -1 nan
nan 0 0 0 0 -0 -0 0 0 0 -0 -0 -0 -0 -0 -0 0 0 -1 -0 -0 0 -0 -0 -1 -2 -1 -0 -0 0 0 0 0 -0 -0 -0 -1 -0 -0 -0 -0 -1 -1 -1 nan
nan -0 0 0 0 0 0 0 0 -0 -0 -0 0 -0 -0 -0 -0 -0 -0 -1 0 -0 -0 -0 -1 -3 -2 -0 -0 0 -0 -0 -0 -0 -0 -0 -0 -1 -1 -1 -2 -1 -1 -1 nan
nan 0 0 0 0 0 0 0 -0 0 -0 -0 -0 -0 0 0 -0 -0 -1 0 -0 0 0 -0 0 -2 -2 -0 -0 0 -0 -0 -0 0 -0 -0 0 -2 -4 -4 -3 -2 -1 -2 nan
nan nan nan nan nan nan nan nan nan nan nan nan nan nan nan nan nan nan nan nan nan nan nan nan nan nan nan nan nan nan nan nan nan nan nan nan nan nan nan nan nan nan nan nan nan
Wind_Speed
14 15 15 16 15 15 15 16 16 16 16 17 17 18 18 19 21 19 19 17 15 16 15 9 11 19 20 23 25 20 16 21 25 23 22 10 14 21 17 20 19 16 19 7 1
15 15 16 16 15 15 14 14 15 15 16 16 18 19 18 20 23 23 18 18 18 16 17 16 16 17 24 24 28 20 16 26 22 21 15 8 17 16 15 18 20 21 18 18 10
15 15 15 15 15 15 15 15 15 16 16 16 17 19 18 19 19 2 3 2 4 8 12 16 17 18 23 21 27 26 24 21 24 17 15 18 19 22 21 21 23 20 21 21 22
14 14 14 13 13 13 14 14 15 16 15 16 17 18 17 13 7 5 6 5 2 6 9 14 19 21 20 21 24 23 26 25 21 24 18 18 24 25 27 25 24 24 24 25 24
13 13 13 12 12 14 15 15 16 16 16 15 17 19 16 10 18 15 15 8 4 6 11 15 18 21 21 18 25 22 22 25 27 23 22 26 25 27 31 30 29 29 30 30 27
12 12 13 14 15 16 17 16 16 16 16 16 17 16 11 17 8 10 6 8 9 9 11 14 15 17 20 18 20 20 20 19 23 25 22 21 24 28 30 30 30 31 32 29 29
12 15 16 16 16 17 17 16 16 16 17 16 14 12 13 23 9 8 10 10 11 14 13 14 15 12 9 14 17 19 22 20 21 25 24 25 25 25 31 31 33 32 30 29 31
14 15 16 17 18 18 15 14 14 15 14 12 10 6 10 8 10 13 12 14 14 14 15 14 13 17 20 17 17 15 19 18 18 18 13 18 20 17 11 16 19 24 27 29 31
11 14 16 17 17 14 12 12 12 13 12 10 1 8 10 6 3 3 3 7 9 14 13 12 16 20 18 15 16 16 17 19 16 11 11 15 17 14 18 14 16 18 22 23 24
11 12 13 12 11 9 9 9 8 10 5 4 7 7 6 3 6 6 6 6 6 7 11 15 12 14 15 15 15 15 18 17 17 12 6 16 20 19 25 26 29 31 28 26 26
9 9 8 9 7 5 5 8 3 6 9 13 9 17 18 11 16 16 10 7 10 12 13 17 13 16 19 18 21 18 22 21 20 16 17 22 22 21 21 27 26 30 30 29 26
10 7 7 6 3 6 8 1 3 4 7 6 5 7 9 7 6 2 11 11 16 17 15 14 17 19 16 16 17 19 22 23 21 19 15 19 22 20 22 23 30 29 28 28 25
10 6 5 3 1 6 6 3 3 4 6 3 5 2 1 4 4 3 4 13 18 17 18 18 10 4 16 15 16 18 19 21 20 18 19 22 24 24 17 19 19 21 27 28 27
5 2 3 3 4 2 1 5 5 2 4 9 7 4 3 4 5 3 4 9 9 18 16 18 16 14 11 15 15 18 17 17 15 15 11 12 14 19 17 9 8 8 13 16 24
2 1 2 2 1 1 3 4 4 2 4 5 7 0 8 5 8 6 3 4 11 10 10 14 12 12 19 20 17 17 13 10 14 15 16 18 11 16 12 8 4 9 12 14 16
3 2 2 5 1 3 4 1 1 5 2 5 3 3 8 3 3 3 5 3 4 9 14 17 18 9 12 11 13 13 10 13 15 13 13 19 15 12 4 8 6 7 7 13 13
2 1 3 1 3 5 2 2 5 6 3 4 1 5 10 5 13 4 8 9 8 7 13 17 22 22 15 15 11 14 12 7 8 7 10 5 6 12 9 6 7 9 12 9 12
2 2 3 1 3 1 0 6 6 5 2 2 7 14 13 6 7 7 14 11 16 13 14 15 13 18 18 21 12 17 16 8 9 8 9 0 8 5 12 12 7 8 8 11 10
4 1 1 3 1 2 6 6 6 5 4 7 12 11 7 1 4 12 12 11 7 11 6 7 10 4 5 14 19 19 15 17 17 20 13 9 13 15 12 8 5 7 14 15 15
3 4 1 1 1 1 5 4 1 4 6 5 6 2 8 9 10 9 5 7 3 9 13 10 16 15 10 9 16 18 4 8 8 6 10 14 17 9 8 5 6 13 13 16 17
6 4 2 3 3 5 4 2 1 1 5 4 5 7 8 9 7 9 7 5 5 8 9 16 13 14 11 12 13 12 11 9 6 9 5 7 2 12 8 7 10 13 14 16 16
3 1 2 2 2 3 2 2 0 1 2 3 5 8 9 9 10 10 11 8 6 10 11 6 7 15 20 9 8 10 13 15 8 12 6 4 2 5 8 5 6 7 11 13 14
2 3 1 2 2 3 3 3 2 3 2 3 4 4 7 10 7 7 7 7 10 10 6 7 5 8 18 9 13 13 14 11 10 6 9 5 1 7 5 8 7 6 8 11 13
2 1 3 1 2 2 2 2 3 2 6 5 7 9 7 7 9 6 12 7 12 15 4 2 6 14 16 9 10 20 16 13 12 5 6 7 13 3 12 11 13 7 8 11 13
2 1 2 2 3 3 3 4 2 3 4 5 4 2 3 6 10 13 10 15 14 6 4 3 9 20 25 11 10 6 13 13 13 11 7 10 13 14 11 14 11 8 8 11 13
2 2 3 7 4 4 3 2 3 2 2 7 6 9 9 11 14 16 16 14 8 4 10 7 7 18 18 7 3 4 7 6 6 8 10 11 10 20 25 17 16 13 10 11 13
1 3 4 6 6 4 2 2 1 4 5 7 7 10 14 15 18 19 22 25 18 16 11 6 5 11 6 0 3 5 10 4 0 4 10 8 12 13 13 14 19 14 14 14 13
Wind_Direction
287 293 298 303 306 305 304 306 307 310 310 314 314 314 316 313 309 305 275 255 244 259 231 232 216 215 218 225 219 224 252 250 254 259 263 244 265 253 243 265 255 237 238 253 266
289 293 298 302 303 303 302 304 308 309 310 313 312 313 318 318 311 291 266 259 259 252 216 211 218 213 217 220 220 225 232 246 263 285 305 250 259 256 239 234 239 254 239 244 250
285 289 295 302 304 305 307 309 310 307 308 310 310 312 319 325 309 179 262 261 268 219 208 224 231 222 231 225 222 223 242 258 264 285 266 282 266 260 259 257 262 253 237 241 228
285 291 296 297 299 302 304 306 305 304 306 307 307 307 317 319 292 273 288 278 252 174 221 222 224 236 239 241 234 244 248 264 270 273 271 249 262 263 262 265 262 259 253 250 245
283 288 290 291 294 298 301 304 302 300 302 303 304 305 316 266 269 273 281 253 224 210 218 217 219 230 238 244 252 244 260 264 272 260 260 267 261 265 264 267 263 257 254 254 252
279 284 286 290 294 296 298 300 297 295 295 294 295 296 289 263 265 268 257 235 214 218 227 230 231 236 259 264 261 257 272 266 272 269 261 262 265 262 262 261 258 254 251 250 246
285 289 292 294 296 293 297 298 297 297 294 291 288 285 258 252 285 261 265 253 231 225 233 236 245 252 242 263 278 282 276 270 258 256 254 256 260 259 264 259 254 252 249 248 247
285 295 298 300 294 293 299 296 297 294 290 289 286 239 259 273 273 268 265 258 242 231 232 232 241 252 258 266 273 265 270 271 263 239 256 233 261 278 263 272 247 249 252 250 245
290 298 300 294 293 298 295 296 299 293 294 294 316 213 264 283 277 297 246 253 237 228 228 227 233 241 245 246 255 241 259 259 263 245 255 237 260 273 298 284 265 264 265 257 250
297 299 297 296 300 304 309 316 309 293 327 263 250 214 252 325 302 278 275 243 229 216 218 223 229 229 223 231 245 250 254 249 258 260 240 257 266 283 279 274 269 269 262 257 253
293 307 310 310 306 326 339 329 301 222 222 268 303 279 298 297 279 264 235 238 231 217 221 196 222 230 235 225 253 269 278 282 281 288 278 273 272 271 269 259 260 258 255 251 251
296 315 325 324 353 38 39 112 43 304 297 267 286 265 284 289 292 271 219 236 228 234 221 228 232 247 243 239 241 254 264 266 275 278 264 273 273 276 266 261 259 258 257 254 248
292 315 344 340 62 42 63 74 354 331 260 184 211 248 300 255 293 22 210 227 246 234 244 239 248 257 241 241 245 250 258 273 281 294 287 274 275 264 243 247 254 261 254 252 246
268 317 42 113 36 338 88 5 339 4 256 140 185 172 262 283 241 266 271 250 229 246 254 255 246 245 248 251 238 260 264 255 272 277 275 320 294 298 293 263 268 256 252 254 246
204 227 89 97 273 304 258 333 340 11 249 124 126 33 307 276 307 151 258 228 256 253 231 251 237 253 250 241 255 263 279 269 266 269 278 274 266 272 221 228 40 353 357 319 239
223 132 62 3 324 286 287 248 148 237 195 135 82 333 311 265 293 305 225 254 268 256 258 254 261 236 265 265 241 242 265 252 262 261 264 264 244 267 212 67 18 4 354 347 347
176 123 101 7 227 270 210 156 241 247 150 112 343 302 297 274 301 292 301 234 247 234 235 237 235 241 224 250 217 215 230 251 223 221 248 282 208 237 105 77 33 14 11 11 351
186 141 67 36 293 248 353 235 257 53 28 26 298 294 279 341 296 292 291 275 248 269 263 281 260 210 207 227 210 207 214 232 256 260 292 138 216 186 103 77 35 22 10 6 357
163 144 17 291 152 331 260 245 353 15 6 328 303 271 272 212 310 299 286 272 13 50 312 305 257 260 198 221 230 234 230 243 265 279 277 255 284 162 114 83 18 24 15 10 1
139 156 239 150 121 350 258 300 328 3 322 303 289 337 315 328 323 301 312 57 31 32 359 290 280 228 175 215 230 238 274 209 217 244 235 243 228 152 114 44 359 29 15 10 8
157 208 303 80 72 240 225 54 265 95 334 302 313 292 296 300 295 301 281 81 34 5 328 304 265 258 205 208 200 203 219 222 253 259 280 289 122 100 103 27 11 22 20 19 11
175 187 307 13 210 233 222 349 292 201 244 272 280 268 274 294 302 294 287 296 33 357 329 339 299 257 228 202 265 256 237 227 229 216 238 288 344 85 42 23 29 16 14 13 21
165 116 2 4 183 180 129 169 265 253 266 282 285 277 310 294 295 305 301 313 7 354 349 4 309 286 247 178 195 235 224 239 238 252 243 259 128 345 321 3 75 15 12 20 24
149 132 121 87 109 42 118 214 202 209 270 261 280 278 294 293 275 265 285 331 333 314 98 322 270 263 262 270 300 215 225 217 228 239 272 259 300 305 353 347 350 64 19 25 27
89 243 128 178 150 124 205 196 206 276 243 264 260 23 341 301 317 293 319 304 315 17 52 258 270 293 256 232 246 192 252 212 216 239 263 299 324 322 353 344 43 67 28 24 27
150 182 199 141 149 233 154 148 291 320 306 286 274 294 309 288 289 297 304 307 302 239 351 286 276 300 229 218 237 181 195 229 262 283 281 275 274 14 18 21 54 49 41 35 28
143 176 259 147 166 187 102 33 316 310 283 268 304 308 293 296 310 301 292 279 269 270 271 265 288 292 139 330 247 258 225 192 174 16 5 5 352 25 39 38 28 44 50 45 39
Height
1508 1507 1506 1504 1503 1501 1499 1498 1496 1494 1491 1489 1488 1485 1484 1481 1478 1475 1473 1474 1474 1472 1474 1479 1479 1478 1479 1478 1476 1475 1469 1457 1449 1446 1442 1447 1448 1448 1451 1451 1451 1455 1455 1454 1457
1506 1504 1503 1502 1500 1499 1496 1495 1493 1492 1489 1488 1485 1482 1481 1478 1473 1468 1469 1465 1467 1468 1469 1474 1475 1476 1474 1470 1469 1467 1458 1452 1446 1440 1441 1445 1448 1449 1449 1448 1450 1451 1452 1453 1456
1504 1501 1500 1499 1497 1495 1493 1492 1490 1488 1487 1485 1483 1480 1479 1477 1472 1464 1463 1463 1462 1464 1468 1472 1473 1472 1468 1464 1462 1459 1452 1446 1442 1443 1449 1448 1447 1449 1447 1445 1446 1446 1448 1450 1451
1501 1500 1497 1495 1494 1492 1490 1488 1486 1485 1484 1482 1481 1478 1477 1476 1468 1462 1462 1462 1463 1462 1469 1469 1469 1469 1466 1458 1458 1455 1451 1449 1445 1445 1447 1449 1449 1444 1443 1442 1445 1445 1445 1446 1446
1498 1497 1495 1493 1490 1488 1486 1485 1483 1482 1480 1479 1478 1476 1476 1476 1468 1461 1461 1461 1461 1463 1466 1467 1465 1465 1459 1456 1454 1449 1449 1448 1447 1444 1446 1446 1443 1440 1436 1440 1441 1440 1441 1441 1442
1494 1494 1492 1490 1487 1485 1483 1482 1479 1478 1476 1476 1475 1474 1475 1473 1463 1461 1460 1460 1461 1463 1464 1466 1463 1461 1457 1454 1451 1448 1444 1445 1445 1441 1439 1440 1436 1436 1431 1433 1432 1433 1433 1435 1435
1492 1490 1489 1486 1483 1481 1480 1478 1476 1474 1472 1471 1472 1471 1473 1465 1463 1462 1460 1460 1460 1460 1460 1463 1463 1463 1459 1456 1453 1452 1449 1444 1440 1438 1434 1435 1429 1426 1424 1423 1422 1423 1425 1426 1428
1487 1487 1485 1483 1480 1478 1476 1475 1472 1470 1468 1469 1469 1470 1466 1461 1460 1459 1458 1459 1458 1458 1459 1460 1462 1462 1460 1458 1455 1454 1450 1443 1427 1424 1424 1428 1423 1414 1412 1415 1412 1416 1417 1418 1419
1484 1482 1481 1479 1476 1475 1473 1471 1469 1466 1465 1466 1467 1470 1463 1458 1457 1457 1456 1457 1456 1456 1457 1458 1459 1458 1459 1456 1452 1444 1441 1430 1423 1424 1424 1421 1414 1409 1412 1411 1411 1411 1411 1410 1410
1480 1479 1477 1475 1473 1473 1471 1469 1465 1466 1465 1466 1468 1469 1458 1456 1456 1455 1456 1456 1455 1455 1457 1458 1455 1450 1449 1446 1445 1437 1431 1422 1424 1417 1417 1420 1415 1413 1412 1411 1408 1406 1405 1404 1405
1479 1476 1473 1473 1471 1469 1469 1470 1469 1468 1467 1461 1458 1456 1455 1456 1453 1452 1452 1453 1453 1453 1449 1450 1448 1441 1440 1438 1438 1436 1434 1426 1421 1418 1425 1419 1412 1409 1407 1401 1398 1396 1396 1397 1399
1477 1473 1472 1471 1469 1469 1469 1471 1471 1469 1462 1458 1455 1456 1454 1454 1452 1447 1449 1451 1446 1442 1439 1442 1439 1433 1432 1435 1439 1441 1437 1431 1422 1418 1418 1413 1404 1399 1394 1391 1387 1387 1388 1390 1393
1474 1473 1470 1470 1469 1470 1471 1471 1467 1467 1463 1454 1455 1454 1454 1454 1448 1445 1446 1444 1442 1435 1433 1432 1426 1427 1431 1431 1436 1435 1436 1429 1424 1417 1412 1407 1395 1385 1377 1375 1378 1379 1380 1384 1386
1470 1472 1469 1469 1472 1472 1472 1471 1468 1465 1451 1448 1450 1452 1451 1450 1446 1444 1444 1442 1435 1432 1430 1425 1424 1427 1435 1431 1429 1429 1423 1423 1427 1427 1417 1393 1400 1382 1373 1369 1373 1374 1377 1378 1381
1468 1470 1468 1468 1470 1473 1471 1468 1467 1467 1436 1444 1446 1451 1449 1447 1443 1440 1442 1439 1432 1426 1432 1425 1424 1429 1427 1428 1429 1428 1422 1427 1424 1420 1415 1407 1402 1380 1363 1372 1372 1374 1377 1377 1376
1468 1467 1469 1470 1470 1471 1466 1465 1468 1456 1436 1444 1445 1448 1447 1442 1438 1436 1436 1437 1432 1429 1425 1423 1420 1425 1424 1424 1426 1424 1427 1427 1424 1416 1415 1399 1398 1376 1360 1374 1381 1381 1383 1383 1379
1467 1468 1466 1468 1472 1466 1466 1467 1454 1440 1440 1445 1445 1451 1445 1437 1439 1433 1427 1424 1423 1423 1417 1415 1415 1417 1423 1425 1422 1423 1428 1427 1420 1419 1412 1378 1383 1371 1371 1377 1382 1385 1386 1387 1388
1467 1468 1465 1467 1468 1466 1467 1462 1446 1442 1443 1449 1450 1447 1440 1437 1434 1431 1427 1419 1412 1412 1411 1407 1405 1400 1409 1417 1414 1417 1417 1421 1416 1403 1397 1379 1385 1370 1371 1382 1387 1388 1389 1388 1390
1467 1468 1468 1466 1465 1466 1467 1450 1439 1446 1456 1455 1449 1437 1431 1437 1442 1435 1425 1419 1419 1430 1433 1414 1403 1405 1408 1409 1415 1412 1413 1406 1411 1401 1400 1384 1362 1364 1372 1384 1386 1384 1386 1388 1389
1469 1468 1468 1466 1464 1466 1462 1454 1452 1461 1464 1459 1452 1445 1441 1439 1444 1434 1429 1425 1435 1440 1441 1425 1415 1402 1403 1410 1408 1405 1408 1418 1415 1414 1401 1371 1360 1360 1384 1384 1382 1382 1387 1389 1388
1467 1465 1468 1466 1465 1464 1460 1454 1462 1466 1468 1463 1455 1454 1452 1451 1447 1442 1436 1433 1441 1442 1445 1439 1426 1405 1398 1406 1404 1409 1411 1412 1406 1401 1395 1383 1372 1373 1381 1381 1382 1385 1389 1390 1390
1467 1464 1468 1467 1465 1462 1455 1463 1469 1465 1467 1465 1463 1457 1454 1451 1448 1444 1439 1433 1444 1445 1444 1450 1441 1409 1401 1393 1396 1404 1401 1400 1405 1395 1388 1392 1381 1377 1378 1381 1383 1388 1391 1393 1392
1465 1466 1468 1467 1463 1458 1466 1466 1468 1465 1465 1463 1460 1459 1457 1455 1454 1443 1441 1440 1442 1447 1450 1453 1435 1415 1394 1401 1395 1397 1399 1399 1400 1400 1398 1395 1385 1387 1376 1376 1380 1387 1393 1394 1393
1467 1467 1466 1466 1466 1464 1468 1467 1464 1469 1467 1466 1462 1459 1456 1453 1449 1449 1445 1444 1447 1446 1450 1455 1442 1428 1398 1391 1393 1389 1389 1394 1397 1402 1391 1387 1377 1372 1375 1377 1380 1388 1395 1396 1396
1467 1466 1465 1467 1466 1466 1468 1470 1468 1466 1466 1464 1457 1460 1461 1457 1451 1447 1447 1445 1443 1448 1453 1453 1441 1431 1405 1398 1396 1391 1393 1391 1395 1393 1395 1383 1382 1379 1376 1379 1384 1393 1399 1400 1400
1470 1467 1468 1469 1471 1468 1471 1465 1465 1465 1468 1462 1461 1458 1457 1458 1454 1451 1446 1444 1448 1446 1449 1449 1432 1432 1403 1389 1387 1388 1387 1388 1388 1390 1389 1386 1382 1390 1393 1388 1395 1401 1404 1405 1405
1470 1470 1466 1469 1467 1468 1468 1468 1468 1470 1468 1466 1464 1462 1460 1456 1455 1453 1450 1447 1446 1446 1449 1450 1437 1418 1395 1399 1393 1397 1389 1388 1390 1389 1390 1398 1401 1402 1407 1413 1413 1411 1412 1412 1410